Date,TemperatureHighF,TemperatureAvgF,TemperatureLowF,DewpointHighF,DewpointAvgF,DewpointLowF,HumidityHigh,HumidityAvg,HumidityLow,PressureMaxIn,PressureMinIn,WindSpeedMaxMPH,WindSpeedAvgMPH,GustSpeedMaxMPH,PrecipitationSumIn
2013-2-1,20,14,9,12,7,2,81,71,60,30.50,30.22,6,2,10,0.00
2013-2-2,33,27,17,28,22,12,92,82,66,30.34,30.05,6,2,9,0.10
2013-2-3,30,24,20,25,20,16,91,83,71,30.17,30.01,4,1,8,0.00
2013-2-4,40,30,18,36,26,16,95,84,60,30.15,29.84,6,2,7,0.03
2013-2-5,44,36,26,36,31,24,95,83,72,30.06,29.89,6,2,7,0.00
2013-2-6,40,36,32,34,30,28,87,79,72,30.28,30.07,3,1,5,0.00
2013-2-7,65,46,32,50,37,29,92,73,40,30.18,29.81,7,1,8,0.22
2013-2-8,51,37,35,48,32,27,92,82,73,30.37,29.84,5,3,10,0.01
2013-2-9,45,36,26,30,27,23,92,72,50,30.42,30.17,5,1,8,0.00
2013-2-10,53,46,36,51,39,26,94,78,58,30.16,29.75,9,4,14,0.20
2013-2-11,55,46,34,51,35,29,90,66,53,30.10,29.75,8,4,13,0.00
2013-2-12,50,38,28,32,29,26,93,73,39,30.16,29.92,4,1,5,0.00
2013-2-13,47,38,33,33,30,25,89,75,43,29.93,29.82,4,2,7,0.00
2013-2-14,54,43,34,40,36,31,92,76,53,30.04,29.86,7,3,10,0.00
2013-2-15,41,35,28,32,26,19,90,73,46,30.20,30.01,5,2,10,0.00
2013-2-16,32,27,23,23,17,11,89,67,43,30.19,30.13,6,2,9,0.00
2013-2-17,39,28,18,21,16,10,90,62,34,30.28,30.16,4,1,6,0.00
2013-2-18,60,45,29,45,32,19,90,62,38,30.16,29.66,12,6,23,0.25
2013-2-19,48,32,26,45,24,16,92,73,63,30.21,29.66,10,4,12,0.13
2013-2-20,30,25,19,19,14,11,77,64,50,30.37,30.21,4,2,7,0.00
2013-2-21,35,27,19,30,22,16,92,80,64,30.37,29.98,6,3,12,0.31
2013-2-22,41,37,32,36,33,29,97,88,76,30.03,29.85,6,2,9,0.02
2013-2-23,43,35,28,30,26,23,86,69,47,30.04,29.94,4,1,6,0.00
2013-2-24,47,34,23,32,26,21,91,72,45,30.17,30.00,4,1,8,0.00
2013-2-25,48,37,25,29,26,22,92,67,43,30.15,29.81,6,2,11,0.00
2013-2-26,46,42,37,44,38,27,96,85,54,29.80,29.38,7,3,10,0.77
2013-2-27,42,37,34,39,34,31,95,88,81,29.78,29.54,6,3,9,0.02
2013-2-28,39,36,33,35,33,30,93,89,83,30.02,29.77,3,2,6,0.00